Weather History for Sheridan, WY

Change the Weather History Date:

Sunday, March 9, 2014

  Actual Average Record
Temperature  
Mean Temperature 47 °F 33 °F  
Max Temperature 56 °F 46 °F 71 °F (2005)
Min Temperature 38 °F 20 °F -18 °F (1932)
Degree Days  
Heating Degree Days 18 32  
Month to date heating degree days 334 300  
Since 1 July heating degree days 6084 5835  
Cooling Degree Days 0 0  
Month to date cooling degree days 0 0  
Year to date cooling degree days 0 0  
Moisture  
Dew Point 26 °F    
Average Humidity 43    
Maximum Humidity 60    
Minimum Humidity 26    
Precipitation  
Precipitation T in 0.03 in 0.38 in (1927)
Month to date precipitation 0.18 0.22  
Year to date precipitation 2.03 1.32  
Sea Level Pressure  
Sea Level Pressure 29.86 in    
Wind  
Wind Speed 6 mph (SW)    
Max Wind Speed 21 mph    
Max Gust Speed 25 mph    
Visibility 10 miles    
Events      
T = Trace of Precipitation, MM = Missing Value Source: NWS Daily Summary

Daily Weather History Graph

Daily Weather History Graph

Search for Another Location

Airport:

Trip Planner

Search our weather history database for the weather conditions in past years. The results will help you decide how hot, cold, wet, or windy it might be!

Date:

Astronomy

Mar. 09, 2014 Rise Set
Actual Time 7:31 AM MDT 7:06 PM MDT
Civil Twilight 7:02 AM MDT 7:35 PM MDT
Nautical Twilight 6:28 AM MDT 8:09 PM MDT
Astronomical Twilight 5:54 AM MDT 8:43 PM MDT
Moon 12:50 PM MDT (3/9) 3:09 AM MDT (3/9)
Length of Visible Light 12h 33m
Length of Day
11h 35m
First Quarter, 61% of the Moon is Illuminated
Mar 9
First Quarter
Mar 16
Full
Mar 23
Last Quarter
Mar 30
New
Apr 7
First Quarter

Hourly Weather History & Observations

Time (MDT) Temp. Windchill Dew Point Humidity Pressure Visibility Wind Dir Wind Speed Gust Speed Precip Events Conditions
12:53 AM 43.0 °F 40.3 °F 21.0 °F 42% 29.92 in 10.0 mi Variable 4.6 mph - N/A   Clear
1:53 AM 46.9 °F - 17.1 °F 30% 29.89 in 10.0 mi Calm Calm - N/A   Clear
3:53 AM 46.9 °F - 17.1 °F 30% 29.88 in 10.0 mi Calm Calm - N/A   Clear
4:53 AM 50.0 °F - 18.0 °F 28% 29.85 in 10.0 mi Variable 5.8 mph - N/A   Clear
5:53 AM 51.1 °F - 18.0 °F 27% 29.86 in 10.0 mi Variable 3.5 mph - N/A   Clear
6:53 AM 51.1 °F - 19.9 °F 29% 29.87 in 10.0 mi West 12.7 mph - N/A   Clear
7:53 AM 46.9 °F - 26.1 °F 44% 29.90 in 10.0 mi SW 5.8 mph - N/A   Partly Cloudy
8:53 AM 48.9 °F - 21.0 °F 33% 29.88 in 10.0 mi NNE 6.9 mph - N/A   Mostly Cloudy
9:53 AM 51.1 °F - 21.9 °F 32% 29.85 in 10.0 mi Variable 3.5 mph - 0.00 in   Partly Cloudy
10:53 AM 48.0 °F - 27.0 °F 44% 29.86 in 10.0 mi ENE 4.6 mph - N/A   Clear
11:53 AM 51.1 °F - 25.0 °F 36% 29.86 in 10.0 mi East 4.6 mph - N/A   Clear
12:53 PM 54.0 °F - 25.0 °F 33% 29.88 in 10.0 mi NE 6.9 mph - N/A   Partly Cloudy
1:53 PM 55.0 °F - 28.0 °F 35% 29.84 in 10.0 mi Calm Calm - N/A   Mostly Cloudy
2:53 PM 51.1 °F - 33.1 °F 50% 29.84 in 10.0 mi East 5.8 mph - N/A   Mostly Cloudy
3:53 PM 54.0 °F - 30.9 °F 41% 29.83 in 10.0 mi Calm Calm - N/A   Mostly Cloudy
4:53 PM 53.1 °F - 37.9 °F 57% 29.83 in 10.0 mi Calm Calm - N/A   Clear
5:53 PM 54.0 °F - 28.9 °F 38% 29.84 in 10.0 mi ESE 3.5 mph - N/A   Clear
6:53 PM 54.0 °F - 28.9 °F 38% 29.83 in 10.0 mi West 17.3 mph - N/A   Clear
7:53 PM 54.0 °F - 28.9 °F 38% 29.86 in 10.0 mi West 16.1 mph - N/A   Clear
8:53 PM 50.0 °F - 27.0 °F 41% 29.87 in 10.0 mi Variable 6.9 mph - N/A   Clear
9:22 PM 53.1 °F - 30.0 °F 41% 29.87 in 10.0 mi West 15.0 mph 24.2 mph N/A   Clear
9:53 PM 50.0 °F - 30.9 °F 48% 29.87 in 10.0 mi West 12.7 mph - N/A   Clear
10:53 PM 46.0 °F 43.9 °F 28.0 °F 50% 29.90 in 10.0 mi Variable 4.6 mph - N/A   Clear
11:53 PM 41.0 °F 38.0 °F 28.0 °F 60% 29.88 in 10.0 mi South 4.6 mph - N/A   Clear
12:53 AM 39.9 °F 36.7 °F 28.9 °F 65% 29.88 in 10.0 mi SSW 4.6 mph - N/A   Clear